Regional Weather Roundup
Issued by NWS Jackson, KY

Home | Current Version | Previous Version | Text Only | Print | Product List | Glossary On
Versions: 1 2 3 4 5 6 7 8 9 10 11 12 13 14 15 16 17 18 19 20 21 22 23 24 25 26 27 28 29 30 31 32 33 34 35 36 37 38 39 40 41 42 43 44 45 46 47 48 49 50
000
ASUS43 KJKL 290119
RWRJKL

EAST KENTUCKY HOURLY WEATHER ROUNDUP
NATIONAL WEATHER SERVICE JACKSON KY
800 PM EST WED JAN 28 2015

NOTE: "FAIR" INDICATES FEW OR NO CLOUDS BELOW 12,000 FEET WITH
NO SIGNIFICANT WEATHER AND/OR OBSTRUCTIONS TO VISIBILITY.

* THESE REPORTS ARE NOT UNDER NWS QUALITY CONTROL AND MAY NOT
  REPORT WEATHER SUCH AS PRECIPITATION AND FOG.

KYZ079-080-083-085-087-088-110-112-115-119-120-290200
...EASTERN KENTUCKY...

CITY           SKY/WX    TMP DP  RH WIND       PRES   REMARKS
JACKSON        CLEAR     31  18  58 VRB5      30.24F WCI  26
LONDON         CLEAR     32  19  58 CALM      30.23F
SOMERSET*      CLEAR     32  18  55 SE3       30.25S
MONTICELLO*    CLEAR     30  22  72 CALM      30.25F
MIDDLESBORO*   CLEAR     30  24  76 CALM      30.26S
HARLAN APT*    CLEAR     32  21  64 E3        30.24S
HAZARD APT*    CLEAR     32  21  64 CALM      30.24F
PIKEVILLE APT* CLEAR     30  19  64 E6        30.24F WCI  24
BIG SANDY*     CLEAR     29  20  68 E5        30.25F WCI  24
MOREHEAD APT*  CLEAR     30  18  59 VRB5      30.26F WCI  25
ASHLAND*       CLEAR     28  19  69 CALM      30.28F
$$

KYZ035-036-041-042-044-050-067-078-099-290200
...CENTRAL KENTUCKY...

CITY           SKY/WX    TMP DP  RH WIND       PRES   REMARKS
MT STERLING*   CLEAR     32  21  64 CALM      30.25S
FLEMING/MASON* CLEAR     28  19  67 SE7       30.25F WCI  21
DANVILLE*      CLEAR     30  21  69 SE3       30.23F
RICHMOND*      CLEAR     32  19  59 CALM      30.23S
LEXINGTON      CLEAR     31  19  61 SE7       30.23F WCI  24
FRANKFORT      CLEAR     32  19  58 SE3       30.22S
$$

KYZ091>093-OHZ055-061-077-WVZ005-015-034-035-042-290200
...SOUTHERN OHIO/WEST VIRGINIA...

CITY           SKY/WX    TMP DP  RH WIND       PRES   REMARKS
COVINGTON      CLOUDY    31  20  63 SE8       30.23S WCI  23
COLUMBUS       PTCLDY    23  13  65 SE3       30.27S
DAYTON         MOCLDY    28  20  71 SE9       30.22S WCI  19
WILMINGTON       N/A     26  17  68 SE8       30.23F WCI  18
HUNTINGTON     CLEAR     28  17  63 E3        30.28F
CHARLESTON     CLEAR     27  14  58 E5        30.29F WCI  22
PINEVILLE*     CLEAR     26  24  92 MISG      30.31S
BECKLEY        CLEAR     22  12  65 CALM      30.23F
BLUEFIELD      CLEAR     29  15  56 CALM      30.22S
$$

VAZ002-007-008-TNZ017-027-036-066-071-290200
...SOUTHWEST VIRGINIA/EAST TENNESSEE...

CITY           SKY/WX    TMP DP  RH WIND       PRES   REMARKS
WISE*          CLEAR     32  19  59 SE3       30.21S
JONESVILLE*    CLEAR     28  23  80 CALM      30.27S
ABINGDON*      CLEAR     29  21  71 CALM      30.25R
BRISTOL        PTCLDY    29  20  69 CALM      30.26S
KNOXVILLE      CLEAR     37  17  44 CALM      30.25S
OAK RIDGE      CLEAR     34  19  54 CALM      30.27S
CROSSVILLE     PTCLDY    33  11  39 CALM      30.21F
NASHVILLE      PTCLDY    45  25  45 S5        30.20F
$$

...KEY TO REMARKS...
VSB - VISIBILITY IN MILES
WCI - WIND CHILL INDEX
HX  - HEAT INDEX

$$



USA.gov is the U.S. government's official web portal to all federal, state and local government web resources and services.